Weather History for Salem, OR

Change the Weather History Date:

Tuesday, January 8, 2013

  Actual Average Record
Temperature  
Mean Temperature 50 °F 40 °F  
Max Temperature 54 °F 47 °F 59 °F (1933)
Min Temperature 46 °F 35 °F 7 °F (1937)
Degree Days  
Heating Degree Days 15 24  
Month to date heating degree days 199 199  
Since 1 July heating degree days 1811 2088  
Cooling Degree Days 0 0  
Month to date cooling degree days 0 0  
Year to date cooling degree days 0 0  
Growing Degree Days 1 (Base 50)    
Moisture  
Dew Point 47 °F    
Average Humidity 85    
Maximum Humidity 93    
Minimum Humidity 77    
Precipitation  
Precipitation T in 0.21 in 1.71 in (1959)
Month to date precipitation 0.21 1.66  
Year to date precipitation 0.21 1.66  
Snow  
Snow 0.00 in - - ()
Month to date snowfall 0.0  
Snow Depth 0.00 in    
Sea Level Pressure  
Sea Level Pressure 30.10 in    
Wind  
Wind Speed 11 mph (South)    
Max Wind Speed 23 mph    
Max Gust Speed 29 mph    
Visibility 9 miles    
Events Rain    
T = Trace of Precipitation, MM = Missing Value Source: NWS Daily Summary

Daily Weather History Graph

Daily Weather History Graph

Search for Another Location

Airport:

Trip Planner

Search our weather history database for the weather conditions in past years. The results will help you decide how hot, cold, wet, or windy it might be!

Date:

Astronomy

Jan. 08, 2013 Rise Set
Actual Time 7:49 AM PST 4:49 PM PST
Civil Twilight 7:15 AM PST 5:22 PM PST
Nautical Twilight 6:39 AM PST 5:58 PM PST
Astronomical Twilight 6:03 AM PST 6:34 PM PST
Moon 4:27 AM PST (1/8) 1:56 PM PST (1/8)
Length of Visible Light 10h 06m
Length of Day
8h 59m
Waning Crescent, 13% of the Moon is Illuminated
Jan 8
Waning Crescent
Jan 11
New
Jan 18
First Quarter
Jan 26
Full
Feb 3
Last Quarter

Hourly Weather History & Observations

Time (PST) Temp. Windchill Dew Point Humidity Pressure Visibility Wind Dir Wind Speed Gust Speed Precip Events Conditions
12:56 AM 46.0 °F 44.8 °F 45.0 °F 96% 30.21 in 10.0 mi SE 3.5 mph - N/A   Overcast
1:56 AM 48.0 °F - 46.0 °F 93% 30.21 in 10.0 mi South 5.8 mph - 0.00 in   Overcast
2:56 AM 48.0 °F - 46.0 °F 93% 30.18 in 10.0 mi South 10.4 mph - N/A   Overcast
3:06 AM 48.2 °F - 46.4 °F 93% 30.17 in 10.0 mi SSE 10.4 mph - N/A   Overcast
3:27 AM 48.2 °F - 46.4 °F 93% 30.17 in 9.0 mi South 8.1 mph - N/A   Overcast
3:41 AM 48.2 °F - 46.4 °F 93% 30.16 in 10.0 mi South 11.5 mph - N/A   Overcast
3:56 AM 48.9 °F - 46.9 °F 93% 30.16 in 10.0 mi South 12.7 mph - N/A   Overcast
4:04 AM 48.2 °F - 46.4 °F 93% 30.15 in 10.0 mi South 12.7 mph - N/A   Overcast
4:56 AM 48.9 °F - 46.9 °F 93% 30.14 in 6.0 mi South 16.1 mph 21.9 mph 0.00 in Rain Light Rain
5:25 AM 50.0 °F - 46.4 °F 87% 30.13 in 10.0 mi South 15.0 mph 24.2 mph 0.00 in   Overcast
5:56 AM 50.0 °F - 46.9 °F 89% 30.13 in 10.0 mi South 17.3 mph 24.2 mph 0.00 in   Overcast
6:40 AM 50.0 °F - 46.4 °F 87% 30.13 in 10.0 mi SSE 16.1 mph - N/A   Overcast
6:56 AM 50.0 °F - 46.9 °F 89% 30.13 in 10.0 mi South 18.4 mph 26.5 mph N/A   Overcast
7:56 AM 50.0 °F - 46.9 °F 89% 30.14 in 10.0 mi South 16.1 mph - N/A   Overcast
8:34 AM 50.0 °F - 46.4 °F 87% 30.14 in 10.0 mi South 12.7 mph - N/A   Overcast
8:56 AM 51.1 °F - 46.9 °F 86% 30.15 in 10.0 mi South 12.7 mph - N/A   Overcast
9:25 AM 51.8 °F - 48.2 °F 88% 30.14 in 10.0 mi South 13.8 mph - N/A   Mostly Cloudy
9:56 AM 52.0 °F - 48.0 °F 86% 30.14 in 10.0 mi South 10.4 mph 19.6 mph N/A   Mostly Cloudy
10:56 AM 52.0 °F - 48.0 °F 86% 30.14 in 10.0 mi South 13.8 mph 21.9 mph N/A   Overcast
11:22 AM 51.8 °F - 48.2 °F 88% 30.13 in 6.0 mi South 18.4 mph 23.0 mph 0.00 in Rain Light Rain
11:56 AM 52.0 °F - 48.9 °F 89% 30.12 in 4.0 mi South 15.0 mph 25.3 mph 0.00 in Rain Light Rain
12:56 PM 53.1 °F - 48.0 °F 83% 30.11 in 4.0 mi South 19.6 mph 27.6 mph 0.00 in   Haze
1:56 PM 53.1 °F - 48.9 °F 86% 30.09 in 10.0 mi South 16.1 mph 24.2 mph 0.00 in   Overcast
2:56 PM 53.1 °F - 48.9 °F 86% 30.07 in 10.0 mi SSE 11.5 mph 21.9 mph 0.00 in   Overcast
3:56 PM 54.0 °F - 48.9 °F 83% 30.06 in 10.0 mi Variable 6.9 mph 19.6 mph N/A   Overcast
4:56 PM 54.0 °F - 48.0 °F 80% 30.04 in 10.0 mi SE 5.8 mph - N/A   Overcast
5:56 PM 53.1 °F - 46.9 °F 80% 30.01 in 10.0 mi South 11.5 mph 21.9 mph N/A   Mostly Cloudy
6:56 PM 53.1 °F - 46.0 °F 77% 29.99 in 10.0 mi South 12.7 mph 24.2 mph N/A   Clear
7:56 PM 51.1 °F - 46.9 °F 86% 29.99 in 10.0 mi South 8.1 mph - N/A   Mostly Cloudy
8:56 PM 51.1 °F - 46.0 °F 83% 29.98 in 10.0 mi SSE 5.8 mph - N/A   Mostly Cloudy
9:56 PM 50.0 °F - 46.0 °F 86% 29.97 in 10.0 mi South 6.9 mph - N/A   Clear
10:56 PM 50.0 °F - 46.0 °F 86% 29.95 in 10.0 mi South 9.2 mph - N/A   Clear
11:56 PM 50.0 °F - 45.0 °F 83% 29.93 in 10.0 mi SSW 8.1 mph - N/A   Clear